Flag for United Kingdom Weather past 2 weeks in Newport, Wales, United Kingdom

Now
50 °F

Passing clouds.


Feels Like: 45 °F
Forecast: 48 / 62 °F
Wind: 13 mph from Southwest

Location: Bristol / Lulsgate

Current Time: Oct 23, 2014 at 6:34:32 AM

Latest Report: Oct 23, 2014 at 6:20 AM


Visibility: N/A

Pressure: 30.12 "Hg

Humidity: 94%

Dew point: 48 °F

Location of NewportLocation

Historic Weather in Newport — Graph

°F

Newport temperature yesterday

Maximum temperature yesterday: 54 °F (at 11:20 AM)
Minimum temperature yesterday: 45 °F (at 12:20 AM)
Average temperature yesterday: 50 °F

Past Weeks' High & Low Weather Summary

 TemperatureHumidityPressure
High63 °F (Oct 17, 12:50 PM)100% (Oct 8, 7:20 AM)30.33 "Hg (Oct 8, 7:20 AM)
Low41 °F (Oct 12, 7:50 AM)59% (Oct 10, 1:50 PM)29.24 "Hg (Oct 8, 3:20 PM)
Average53 °F88%29.75 "Hg
* Reported Oct 8 5:20 AM — Oct 23 5:20 AM, Newport, Weather by CustomWeather, © 2014

Note: Actual official high and low records may vary slightly from our data, if they occured in-between our weather recording intervals... More about our weather records

Advertising

Newport weather history for previous 24 hours

 ConditionsComfort  
Time TempWeatherWind HumidityBarometerVisibility
5:20 AM
Oct 23
52 °FPassing clouds.12 mph88%30.12 "HgN/A
4:50 AM52 °FPassing clouds.9 mph88%30.12 "HgN/A
4:20 AM52 °FPassing clouds.10 mph88%30.15 "HgN/A
3:20 AM52 °FPassing clouds.12 mph82%30.15 "HgN/A
2:50 AM52 °FPassing clouds.12 mph82%30.15 "HgN/A
2:20 AM52 °FPassing clouds.9 mph82%30.18 "HgN/A
1:50 AM52 °FPassing clouds.10 mph82%30.18 "HgN/A
1:20 AM52 °FPassing clouds.10 mph82%30.18 "HgN/A
12:50 AM52 °FPartly cloudy.9 mph82%30.18 "HgN/A
12:20 AM52 °FPassing clouds.12 mph82%30.18 "HgN/A
11:50 PM
Oct 22
52 °FPassing clouds.10 mph82%30.21 "HgN/A
11:20 PM52 °FPassing clouds.10 mph82%30.21 "HgN/A
10:50 PM52 °FPassing clouds.10 mph82%30.21 "HgN/A
10:20 PM52 °FPassing clouds.9 mph88%30.21 "HgN/A
9:50 PM52 °FPassing clouds.10 mph88%30.21 "HgN/A
9:20 PM52 °FPassing clouds.10 mph82%30.21 "HgN/A
8:50 PM52 °FPassing clouds.10 mph88%30.21 "HgN/A
8:20 PM54 °FPassing clouds.10 mph77%30.24 "HgN/A
7:50 PM54 °FPassing clouds.12 mph77%30.24 "HgN/A
7:20 PM54 °FPassing clouds.14 mph82%30.24 "HgN/A
6:50 PM54 °FScattered clouds.15 mph82%30.24 "HgN/A
6:20 PM54 °FScattered clouds.15 mph82%30.24 "HgN/A
5:50 PM54 °FBroken clouds.12 mph82%30.24 "HgN/A
5:20 PM54 °FScattered showers. Broken clouds.13 mph82%30.24 "HgN/A
4:50 PM54 °FScattered showers. Broken clouds.17 mph82%30.24 "HgN/A
4:20 PM52 °FScattered showers. Broken clouds.16 mph88%30.27 "HgN/A
3:20 PM52 °FDrizzle. Partly sunny.12 mph88%30.27 "Hg6 mi
2:50 PM52 °FDrizzle. Partly sunny.14 mph88%30.27 "Hg5 mi
2:20 PM54 °FBroken clouds.12 mph77%30.30 "Hg6 mi
1:50 PM52 °FPartly sunny.14 mph77%30.30 "HgN/A
1:20 PM52 °FBroken clouds.15 mph77%30.30 "HgN/A
12:50 PM54 °FPartly sunny.17 mph72%30.30 "HgN/A
12:20 PM54 °FScattered clouds.15 mph72%30.30 "HgN/A
11:50 AM52 °FPassing clouds.16 mph77%30.30 "HgN/A
11:20 AM54 °FSunny.15 mph72%30.30 "Hg10 mi
10:50 AM52 °FSunny.18 mph77%30.30 "Hg10 mi
10:20 AM52 °FSunny.17 mph77%30.33 "Hg10 mi
9:50 AM50 °FPassing clouds.15 mph76%30.33 "HgN/A
9:20 AM50 °FSunny.16 mph76%30.30 "Hg10 mi
8:50 AM48 °FSunny.15 mph82%30.30 "Hg10 mi
8:20 AM48 °FPassing clouds.14 mph76%30.30 "HgN/A
7:50 AM46 °FClear.13 mph82%30.30 "Hg10 mi
7:20 AM46 °FClear.15 mph82%30.30 "Hg10 mi
6:50 AM46 °FClear.16 mph82%30.30 "Hg10 mi
6:20 AM46 °FClear.18 mph82%30.30 "Hg10 mi
Weather by CustomWeather, © 2014

See weather overviewHow to use our weather pages